Regional Weather Roundup
Issued by NWS Sterling, VA

Home | Current Version | Previous Version | Graphics & Text | Print | Product List | Glossary On
Versions: 1 2 3 4 5 6 7 8 9 10 11 12 13 14 15 16 17 18 19 20 21 22 23 24 25 26 27 28 29 30 31 32 33 34 35 36 37 38 39 40 41 42 43 44 45 46 47 48 49 50
370
ASUS41 KLWX 230610
RWRLWX

REGIONAL WEATHER ROUNDUP
NATIONAL WEATHER SERVICE BALTIMORE MD/WASHINGTON DC
200 AM EDT THU MAR 23 2017

Note: "FAIR" indicates few or no clouds below 12,000 feet
with no significant weather and/or obstructions to visibility.
 TC=TEMPERATURE CELSIUS

 * =Non NWS site. Station does not report precipitation (e.g. rain,
    snow, etc.), thunder, or fog.

DCZ001-MDZ009-015-VAZ040>042-051-053>054-230700-
WASHINGTON METRO

CITY           SKY/WX    TMP DP  RH WIND       PRES   REMARKS
WASHINGTON NAT CLEAR     35   7  31 NE10      30.51R WCI  27
DULLES         PTCLDY    32   6  33 N8        30.49S WCI  25
ANDREWS AFB    CLEAR     28   7  41 NE5       30.48R
FT BELVOIR     CLEAR     33   5  30 N5        30.50R
QUANTICO       CLEAR     37  11  34 NE10      30.51R
COLLEGE PARK*  CLEAR     30   9  40 CALM      30.51R
LEESBURG*      CLEAR     30  18  59 N3        30.50S
MANASSAS*      CLEAR     32  10  40 N6        30.50R
GAITHERSBURG*  CLEAR     28   1  31 CALM      30.53R

$$

MDZ006>007-011-014-230700-
BALTIMORE METRO

CITY           SKY/WX    TMP DP  RH WIND       PRES   REMARKS
BWI AIRPORT    CLEAR     30   3  31 NE5       30.50R
MD SCIENCE CTR   N/A     33   2  26 MISG      30.50S
MARTIN STATE   CLEAR     30   9  40 N3        30.53S
ANNAPOLIS      PTCLDY    34  11  38 NE5       30.50S
FORT MEADE*    CLEAR     27  10  50 CALM      30.53R

$$

MDZ012-015-019>023-230700-
MARYLAND EASTERN SHORE

CITY           SKY/WX    TMP DP  RH WIND       PRES   REMARKS
OCEAN CITY     CLEAR     32   9  38 N13G21    30.48R WCI  22
SALISBURY      CLEAR     29   7  39 N9        30.48R WCI  20
BAY BRIDGE AP* CLEAR     30   5  34 N5        30.51R
CAMBRIDGE*     CLEAR     32   3  29 N9        30.50R WCI  24
EASTON*        CLEAR     30   5  34 NE7       30.53S

$$

MDZ017>025-230700-
SOUTHERN MARYLAND

CITY           SKY/WX    TMP DP  RH WIND       PRES   REMARKS
PATUXENT RIVER PTCLDY    32  10  40 NE17      30.49R WCI  21
ST INIGOES     PTCLDY    34  10  37 NE10G17   30.49R WCI  26
LEONARDTOWN*   PTCLDY    32  14  47 NE5       30.50S

$$

MDZ003>005-230700-
NORTH CENTRAL MARYLAND

CITY           SKY/WX    TMP DP  RH WIND       PRES   REMARKS
FREDERICK*     CLEAR     28  19  69 CALM      30.53R
HAGERSTOWN APT CLEAR     29   4  34 E3        30.49R
WESTMINSTER*   CLEAR     27   7  43 CALM      30.47R

$$

MDZ501>502-230700-
WESTERN MARYLAND

CITY           SKY/WX    TMP DP  RH WIND       PRES   REMARKS
OAKLAND*       CLEAR     19   5  53 N3        30.37S
CUMBERLAND*    CLEAR     30   5  34 NW3       30.54R

$$

VAZ025>031-230700-
SHENANDOAH VALLEY

CITY           SKY/WX    TMP DP  RH WIND       PRES   REMARKS
WINCHESTER*    CLEAR     28   7  40 CALM      30.49R
FRONT ROYAL*   CLOUDY    30  10  43 CALM      30.48R
LURAY*         CLOUDY    32  18  55 CALM      30.46S
NEW MARKET*    CLOUDY    24  13  60 CALM      30.46R
STAUNTON*      CLOUDY    27  10  47 CALM      30.48R
WAYNESBORO*    CLOUDY    30   9  41 N3        30.44R

$$

WVZ021-048>050-054>055-230700-
EASTERN WEST VIRGINIA PANHANDLE

CITY           SKY/WX    TMP DP  RH WIND       PRES   REMARKS
MARTINSBURG    CLEAR     28   6  39 CALM      30.49R
PETERSBURG*    CLOUDY    27  17  66 CALM      30.49S

$$

VAZ036>039-050-230700-
CENTRAL FOOTHILLS

CITY           SKY/WX    TMP DP  RH WIND       PRES   REMARKS
CHARLOTTESVILL PTCLDY    35   7  31 E3        30.46R
CULPEPER*      PTCLDY    32  11  42 CALM      30.51R
ORANGE*        MOCLDY    32  10  40 NE6       30.49R
GORDONSVILLE*  CLOUDY    30  15  53 CALM      30.47R
WARRENTON*     MOCLDY    28  11  48 CALM      30.49R

$$

VAZ055>057-230700-
NORTH AND CENTRAL PIEDMONT

CITY           SKY/WX    TMP DP  RH WIND       PRES   REMARKS
FREDERICKSBRG* PTCLDY    35  13  40 N3        30.50R
STAFFORD*      PTCLDY    29  13  50 CALM      30.54R

$$

NCZ024-NYZ072-PAZ021-071-VAZ022-071-230700-
OTHER REGIONAL OBSERVATIONS

CITY           SKY/WX    TMP DP  RH WIND       PRES   REMARKS
NEW YORK CITY  CLEAR     23   3  42 VRB7G17   30.49R
PHILADELPHIA   PTCLDY    26   1  34 N13       30.53R WCI  15
PITTSBURGH     CLEAR     23   9  55 NE3       30.50S
ROANOKE        CLOUDY    38  12  34 NE3       30.46R
RICHMOND       CLEAR     36  11  35 N3        30.48R
RALEIGH        PTCLDY    39  15  37 E7        30.45S

$$

ANZ530>537-230700-
MARINE OBSERVATIONS

STATION/POSITION TIME  TEMP    WIND        PRES
                       AIR SEA DIR/SP/G
                 (UTC) (F)     (DEG/KT/KT) (MB)
THOMAS PT LIGHT  0600   34 43   30/ 16/ 19   N/A
BALT KEY BRIDGE  0548           40/  7/  8 1033.3R
COVE POINT       0548           50/ 15/ 19 1033.1R
LEWISETTA        0542      48   50/  9/ 14 1032.1R
PINEY POINT      0548           70/  7/ 10   N/A

$$





USA.gov is the U.S. government's official web portal to all federal, state and local government web resources and services.